This demonstration page uses our WeatherBlox Daily Observations layout. Learn more.

Left ArrowRight Arrow

Hourly Observations for August 31, 2018

Temp ( °F °C ) Dew Point ( °F °C ) Humidity (%) Winds ( mph kmh ) Pressure ( in mb ) Visibility ( mi km ) Precip ( " mm )
12:52 am 00:52 Clear 67 19.4 65 18.3 93 93 SSE 10 17 30.02 1017 10 16 0.00 0.00
1:52 am 01:52 Clear 67 19.4 65 18.3 93 93 SSE 9 15 30.01 1016 10 16 0.00 0.00
2:52 am 02:52 Clear 67 19.4 65 18.3 93 93 SSE 10 17 30.00 1016 10 16 0.00 0.00
3:52 am 03:52 Clear 67 19.4 65 18.3 93 93 SSE 13 20 30.01 1016 10 16 0.00 0.00
4:52 am 04:52 Clear 67 19.4 64 17.8 91 91 SSE 13 20 30.01 1016 10 16 0.00 0.00
5:52 am 05:52 Mostly Clear 67 19.4 64 17.8 91 91 SSE 13 20 30.00 1016 10 16 0.00 0.00
6:52 am 06:52 Mostly Cloudy 67 19.4 65 18.3 93 93 SSE 14 22 30.00 1016 10 16 0.00 0.00
7:12 am 07:12 Mostly Sunny 67 19.4 65 18.3 93 93 SSE 15 24 30.00 1016 10 16 0.00 0.00
7:42 am 07:42 Mostly Cloudy 68 20 66 18.9 93 93 SSE 14 22 30.00 1016 10 16 0.00 0.00
7:52 am 07:52 Mostly Cloudy 68 20 66 18.9 93 93 SSE 16 26 30.01 1016 10 16 0.00 0.00
8:17 am 08:17 Partly Cloudy 69 20.6 67 19.4 93 93 SSE 15 24 30.00 1016 10 16 0.00 0.00
8:52 am 08:52 Sunny 72 22.2 68 20 87 87 S 12 19 30.00 1016 10 16 0.00 0.00
9:52 am 09:52 Sunny 75 23.9 69 20.6 82 82 SSE 14 22 30.01 1016 10 16 0.00 0.00
10:52 am 10:52 Sunny 78 25.6 70 21.1 76 76 S 12 19 30.01 1016 10 16 0.00 0.00
11:52 am 11:52 Sunny 81 27.2 71 21.7 72 72 S 9 15 30.00 1016 10 16 0.00 0.00
12:52 pm 12:52 Mostly Sunny 85 29.4 73 22.8 68 68 S 9 15 30.00 1016 10 16 0.00 0.00
1:52 pm 13:52 Sunny 87 30.6 73 22.8 63 63 SSE 12 19 29.98 1015 10 16 0.00 0.00
2:52 pm 14:52 Partly Cloudy 88 31.1 73 22.8 61 61 S 10 17 29.96 1015 10 16 0.00 0.00
3:52 pm 15:52 Mostly Sunny 88 31.1 73 22.8 61 61 SSE 12 19 29.94 1014 10 16 0.00 0.00
4:52 pm 16:52 Mostly Sunny 88 31.1 71 21.7 57 57 SSE 15 24 29.93 1014 10 16 0.00 0.00
5:52 pm 17:52 Sunny 86 30 72 22.2 63 63 SSE 12 19 29.91 1013 10 16 0.00 0.00
6:52 pm 18:52 Sunny 84 28.9 72 22.2 67 67 S 14 22 29.90 1012 10 16 0.00 0.00
7:52 pm 19:52 Clear 82 27.8 71 21.7 69 69 SSE 10 17 29.91 1013 10 16 0.00 0.00
8:52 pm 20:52 Clear 80 26.7 71 21.7 74 74 SSE 12 19 29.92 1013 10 16 0.00 0.00
9:52 pm 21:52 Clear 80 26.7 71 21.7 74 74 SSE 14 22 29.92 1013 10 16 0.00 0.00
10:52 pm 22:52 Clear 78 25.6 70 21.1 76 76 S 12 19 29.93 1014 10 16 0.00 0.00
11:52 pm 23:52 Clear 77 25 70 21.1 79 79 SSE 13 20 29.94 1014 10 16 0.00 0.00

Powered by AerisWeather